Location: Ch�tillon
(48.8024°N, 2.2935°E)
Time: 11:49:17
(UTC+00:00)

Cosmos 1697 Rocket - Pass Details

Date: 28 May 2022
Orbit: 833 x 843 km, 71.0° (Epoch: 03 July)

Event Time Altitude Azimuth Distance (km) Brightness Sun altitude
Rises 21:53:37 0° 259° (W) 3,397 6.1 -15.1°
Reaches altitude 10° 21:56:49 10° 277° (W) 2,466 5.6 -15.4°
Maximum altitude 22:00:46 19° 322° (NW) 1,909 5.6 -15.7°
Drops below altitude 10° 22:04:44 10° 6° (N) 2,471 6.0 -15.9°
Sets 22:07:57 0° 25° (NNE) 3,408 6.5 -16.2°
